Location: Marsån
(66.4167°N, 22.2833°E)
Time: 10:47:07
(UTC+00:00)

Cosmos 2292 Rocket - Pass Details

Date: 24 February 2024
Orbit: 374 x 1352 km, 83.0° (Epoch: 15 April)

Event Time Altitude Azimuth Distance (km) Brightness Sun altitude
Rises 16:23:10 0° 342° (NNW) 2,557 6.9 -6.6°
Reaches altitude 10° 16:25:02 10° 341° (NNW) 1,770 6.1 -6.8°
Maximum altitude 16:28:53 79° 256° (WSW) 636 3.8 -7.2°
Drops below altitude 10° 16:33:53 10° 170° (S) 2,290 6.4 -7.7°
Sets 16:36:35 0° 170° (S) 3,388 7.3 -7.9°
